Tracking 19720 objects as of 27-Jun-2019
HD Live streaming from Space Station
objects crossing your sky now

DMSP 5D-2 F11 DEB

Track DMSP 5D-2 F11 DEB now!
10-day predictions


NORAD ID: 28312
Int'l Code: 1991-082Z
Perigee: 822.4 km
Apogee: 836.5 km
Inclination: 98.8 °
Period: 101.3 minutes
Semi major axis: 7200 km
RCS: 0.0099 m2 (small)
Launch date: November 28, 1991
Source: United States (US)
Launch site: AIR FORCE WESTERN TEST RANGE (AFWTR)

Note: This is SATELLITE DEBRIS
aabbcc
Your satellite tracking list
Your tracking list is empty




NASA's NSSDC Master Catalog

Two Line Element Set (TLE):
1 28312U 91082Z   19176.86031375  .00000135  00000-0  83169-4 0  9993
2 28312  98.8474 194.3916 0009835 277.3568  82.6490 14.20902046784965
Source of the keplerian elements: AFSPC